Regional Weather Roundup
Issued by NWS Sioux Falls, SD

Home | Current Version | Previous Version | Graphics & Text | Print | Product List | Glossary Off
Versions: 1 2 3 4 5 6 7 8 9 10 11 12 13 14 15 16 17 18 19 20 21 22 23 24 25 26 27 28 29 30 31 32 33 34 35 36 37 38 39 40 41 42 43 44 45 46 47 48 49 50

620
ASUS43 KFSD 220410
RWRFSD

WEATHER ROUNDUP FOR SE SOUTH DAKOTA/SW MINNESOTA/NW IOWA
NATIONAL WEATHER SERVICE SIOUX FALLS SD
1100 PM CDT SAT OCT 21 2017

NOTE: "FAIR" INDICATES FEW OR NO CLOUDS BELOW 12,000 FEET WITH NO
SIGNIFICANT WEATHER AND OR OBSTRUCTIONS TO VISIBILITY.


SDZ038>040-050-052>070-220500-
SOUTHEAST SOUTH DAKOTA

CITY           SKY/WX    TMP DP  RH WIND       PRES   REMARKS
BROOKINGS      CLEAR     43  37  79 SW6       29.89R
CHAMBERLAIN    CLEAR     43  36  75 W5        29.93F
HURON          PTCLDY    44  37  76 SW6       29.90R
MADISON        FAIR      45  37  76 W12       29.89S
MITCHELL       CLEAR     45  36  70 W7        29.91F
SIOUX FALLS    CLEAR     47  39  74 SW5       29.92R
WINNER         FAIR      43  30  60 W8        29.95F
YANKTON        CLEAR     44  36  73 S5        29.96R
$$

MNZ071-072-080-081-089-090-097-098-220500-
SOUTHWEST MINNESOTA

CITY           SKY/WX    TMP DP  RH WIND       PRES   REMARKS
FAIRMONT       CLOUDY    50  42  74 W8        29.89R
JACKSON        PTCLDY    46  37  71 W8        29.90R
LUVERNE        CLEAR     43  36  75 W8        29.90R
MARSHALL       CLEAR     47  40  76 W7        29.86S
MONTEVIDEO     CLEAR     46  41  81 W6        29.82F
PIPESTONE      CLEAR     43  37  81 W6        29.88R
REDWOOD FALLS  CLOUDY    49  40  71 SW8       29.85R
TRACY          CLEAR     48  42  78 W6        29.87S
WORTHINGTON    CLEAR     43  39  86 SW7       29.90R
$$

IAZ001>003-012>014-020>022-031-032-NEZ013-014-SDZ071-220500-
NORTHWEST IOWA

CITY           SKY/WX    TMP DP  RH WIND       PRES   REMARKS
CHEROKEE       CLOUDY    44  40  86 SW3       29.94R
DENISON        CLOUDY    50  41  71 VRB3      29.98R
ESTHERVILLE    CLOUDY    47  42  83 NW3       29.90R
LE MARS        PTCLDY    43  39  87 S5        29.94R
ORANGE CITY    CLOUDY    43  39  87 W3        29.92S
SHELDON        CLEAR     41  39  93 SW3       29.91R
SIOUX CITY     PTCLDY    41  39  93 W5        29.96R
SPENCER        CLOUDY    47  40  76 W9        29.92R
STORM LAKE     CLOUDY    46  41  81 W6        29.94R
$$

ABBREVIATIONS USED IN REMARKS
   TC - TEMPERATURE IN CELSIUS
  WCI - WIND CHILL INDEX
   HX - HEAT INDEX
  VSB - VISIBILITY





USA.gov is the U.S. government's official web portal to all federal, state and local government web resources and services.